GLOBALSTAR M096

Last updated on Sun Jun 21 2026 00:03:18 GMT+0000 (Coordinated Universal Time)

1 39075U 13005D 26171.31683800 -.00000113 00000+0 -51054-4 0 9994 2 39075 52.0043 190.0746 0000103 333.6105 26.4756 12.62265673617781
UTC large
Height (km)
Speed (km/s)
/
Latitude / Longitude
Inclination (degrees)
Orbital Period (minutes)
Azimuth
Elevation
Range (km)
Doppler Factor

Next 0 passes for location: London (51.5072 / 0.1276)

No passes found over London.
GLOBALSTAR M096